[[{"header":{"parameterUnit":"m.s-1","parameterCategory":1,"la1":30.2991,"la2":30.254,"lo1":-89.0895,"lo2":-89.0444,"dy":0.0017,"dx":0.0017,"nx":28,"ny":28,"refTime":"2025-07-02T21:00:00:Z","depth":0,"parameterNumber":2,"parameterNumberName":"U-component_of_WINDS"},"data":[0,0,0,0,0,0,0,0,0,0,0,0,0,0,0,0,0,0,0,0,0,0,0,0,0,0,0,0,0,0,0,0,0,0,0,0,0,0,0,0,0,0,0,0,0,0,0,0,0,0,0,0,0,0,0,0,0,0,3.4119,3.4118,0,3.4071,3.4071,3.407,3.3907,3.3903,3.39,3.3896,3.3857,3.3859,3.3861,0,0,0,0,0,0,0,0,0,0,0,0,0,3.4078,3.408,3.4119,3.4118,3.4118,3.4071,3.4071,3.407,3.3908,3.3903,3.3899,3.3894,3.3856,3.3859,3.3861,0,0,0,0,0,0,0,0,0,0,0,0,0,3.407,3.408,3.4119,3.4031,3.4023,3.4071,3.4071,3.407,3.3909,3.3903,3.3897,3.3892,3.3855,3.3858,3.3862,3.3995,0,0,3.3873,3.3874,0,0,0,0,0,0,0,0,3.4071,3.4072,3.4045,3.4037,3.4028,3.3989,3.4041,3.4045,3.391,3.3952,3.3896,3.389,3.3906,3.3905,3.3908,3.3993,3.3991,3.3873,3.3875,3.3877,3.3878,0,0,0,0,0,0,0,3.4072,3.4073,3.41,3.4044,3.4034,3.3997,3.3989,3.4041,3.3961,3.3948,3.3936,3.3932,3.39,3.3905,3.3906,3.3991,3.3873,3.3876,3.3878,3.388,3.4183,3.4189,0,0,0,0,0,0,3.4083,3.4075,3.4102,3.4099,3.4036,3.4002,3.3994,3.4007,3.396,3.3947,3.3937,3.3925,3.3902,3.3902,3.3904,3.4057,3.3877,3.388,3.3882,3.4177,3.4184,3.4191,0,0,0,0,0,0,3.4083,3.4087,3.4104,3.4083,3.4082,3.4008,3.4025,3.4009,3.4014,3.3951,3.3937,3.3956,3.3897,3.3899,3.3973,3.4054,3.3882,3.3885,3.417,3.4179,3.4188,3.4366,0,0,0,0,0,0,3.4083,3.4088,3.4136,3.4085,3.4084,3.4172,3.403,3.4012,3.402,3.4003,3.3966,3.3954,3.3893,3.3969,3.3977,3.4056,3.3888,3.4163,3.4174,3.4185,3.4352,3.4379,3.4403,0,0,0,0,0,3.4082,3.419,3.4139,3.4144,3.4142,3.4176,3.4176,3.4101,3.4027,3.4076,3.4035,3.3956,3.4043,3.3977,3.3985,3.4067,3.4157,3.4171,3.4184,3.4341,3.4374,3.4402,0,0,0,0,0,0,3.4256,3.4182,3.4125,3.4219,3.4205,3.4149,3.4208,3.4138,3.4147,3.4132,3.4041,3.4034,3.4122,3.4101,3.4029,3.4193,3.4087,3.4103,3.4204,3.4235,3.426,3.4264,3.3891,0,0,0,0,0,3.4305,3.4336,3.427,3.4361,3.4356,3.4284,3.4296,3.4239,3.4222,3.4216,3.418,3.417,3.4194,3.4213,3.4232,3.4347,3.4338,3.4407,3.4433,3.4454,3.4469,3.453,3.456,3.4234,3.4234,3.4234,0,0,3.4407,3.437,3.4396,3.4395,3.4377,3.4414,3.428,3.4325,3.4352,3.4223,3.429,3.4265,3.4246,3.4342,3.4382,3.4327,3.4557,3.4471,3.4488,3.4492,3.4547,3.4578,3.4605,3.4243,3.4242,3.424,0,0,3.4613,3.4587,3.466,3.4644,3.4617,3.4568,3.4586,3.4539,3.4516,3.4581,3.4485,3.4518,3.4563,3.4554,3.4555,3.4756,3.4684,3.4765,3.4899,3.4959,3.4985,3.5007,3.5081,3.5108,3.478,3.4781,3.4781,0,3.4745,3.4794,3.4707,3.4757,3.476,3.4641,3.4716,3.4705,3.4689,3.4695,3.4632,3.4685,3.4665,3.4757,3.4806,3.481,3.483,3.4771,3.4987,3.5009,3.5029,3.5098,3.5126,3.4791,3.479,3.4789,3.4788,0,3.4958,3.4994,3.5056,3.5039,3.5048,3.5111,3.5036,3.5057,3.4999,3.4957,3.5026,3.4996,3.5008,3.5025,3.497,3.511,3.5077,3.5003,3.4895,3.5071,3.5135,3.5161,3.4806,3.4802,3.4799,3.4796,0,0,3.5275,3.5207,3.5232,3.5222,3.5183,3.5211,3.5269,3.5277,3.5297,3.5289,3.5338,3.5377,3.5307,3.5309,3.5252,3.5305,3.5468,3.5223,3.5221,3.5272,3.5623,3.5681,3.5713,3.5419,3.5423,3.5427,3.5625,0,3.5472,3.5564,3.5487,3.5595,3.5628,3.5515,3.5565,3.5549,3.5511,3.5536,3.5495,3.5526,3.543,3.5431,3.5478,3.5439,3.5538,3.5423,3.5466,3.5469,3.5476,3.5746,3.5808,3.5996,3.5649,3.5653,3.5656,0,3.5715,3.5714,3.5825,3.5778,3.5789,3.5836,3.5837,3.5861,3.5841,3.581,3.5811,3.5739,3.5796,3.5688,3.5765,3.5689,3.5702,3.5685,3.5691,3.5694,3.5575,3.5759,3.6054,3.6084,3.5695,3.5692,3.5689,0,3.5938,3.5965,3.6034,3.603,3.5977,3.6013,3.5993,3.5966,3.5976,3.5978,3.5984,3.5994,3.6,3.601,3.5944,3.5871,3.6032,3.5918,3.601,3.6013,3.6052,3.6051,3.6355,3.6056,3.6056,3.6055,3.6055,0,3.6168,3.6241,3.6133,3.6177,3.6256,3.6166,3.6248,3.6216,3.6194,3.6231,3.6134,3.6172,3.608,3.6109,3.6058,3.6132,3.6135,3.6114,3.61,3.6124,3.6127,3.6133,3.6119,3.6063,3.6061,3.606,3.6058,0,3.6432,3.6362,3.6431,3.6374,3.6361,3.6422,3.6375,3.6414,3.6368,3.6417,3.6423,3.6354,3.6383,3.6317,3.6338,3.6303,3.6408,3.6372,3.6414,3.6405,3.6502,3.6495,3.6823,3.6863,3.6537,3.654,3.6543,0,3.6584,3.6637,3.6584,3.66,3.6585,3.6613,3.6621,3.6536,3.6549,3.6529,3.6572,3.6591,3.6603,3.6655,3.6609,3.6624,3.659,3.6703,3.6592,3.6614,3.6594,3.6593,3.6599,3.6728,3.6732,3.6735,3.6738,0,3.6863,3.6826,3.684,3.6843,3.6855,3.6853,3.6846,3.6866,3.6774,3.6795,3.6821,3.683,3.6849,3.6872,3.6876,3.6858,3.6785,3.6773,3.6795,3.6822,3.6845,3.6836,3.648,3.6767,3.6764,3.6762,3.676,3.6759,3.7077,3.7119,3.7088,3.7108,3.7092,3.7087,3.712,3.7078,3.7097,3.7104,3.7053,3.7091,3.7069,3.7067,3.7057,3.7087,3.7036,3.7069,3.7077,3.7088,3.7104,3.6838,3.7088,3.7087,3.7086,3.7085,3.7085,0,3.7353,3.7327,3.7345,3.7336,3.7352,3.7275,3.7263,3.7283,3.7316,3.73,3.7312,3.7344,3.7365,3.7319,3.7333,3.7366,3.7333,3.7373,3.7371,3.7369,3.7148,3.7128,3.74,3.74,3.74,3.74,3.74,3.74,3.7499,3.7565,3.7525,3.7583,3.7557,3.7591,3.759,3.7586,3.7572,3.7611,3.7626,3.7594,3.7567,3.7578,3.7595,3.758,3.7592,3.7644,3.762,3.7415,3.7384,3.7355,3.7336,3.7647,3.7647,3.7838,3.7839,3.7841]},{"header":{"parameterUnit":"m.s-1","parameterCategory":1,"la1":30.2991,"la2":30.254,"lo1":-89.0895,"lo2":-89.0444,"dy":0.0017,"dx":0.0017,"nx":28,"ny":28,"refTime":"2025-07-02T21:00:00:Z","depth":0,"parameterNumber":3,"parameterNumberName":"V-component_of_WINDS"},"data":[0,0,0,0,0,0,0,0,0,0,0,0,0,0,0,0,0,0,0,0,0,0,0,0,0,0,0,0,0,0,0,0,0,0,0,0,0,0,0,0,0,0,0,0,0,0,0,0,0,0,0,0,0,0,0,0,0,0,1.1218,1.1219,0,1.1308,1.1309,1.131,1.1357,1.1357,1.1357,1.1358,1.1443,1.1445,1.1447,0,0,0,0,0,0,0,0,0,0,0,0,0,1.108,1.1082,1.1218,1.1219,1.122,1.1308,1.1309,1.131,1.1357,1.1357,1.1357,1.1358,1.1442,1.1444,1.1447,0,0,0,0,0,0,0,0,0,0,0,0,0,1.1151,1.1083,1.1218,1.1254,1.1259,1.1307,1.1309,1.131,1.1357,1.1357,1.1357,1.1358,1.1441,1.1444,1.1447,1.1464,0,0,1.1457,1.1459,0,0,0,0,0,0,0,0,1.1147,1.1156,1.1248,1.1252,1.1257,1.1322,1.1291,1.1362,1.1357,1.1319,1.1358,1.1358,1.1402,1.1408,1.1424,1.1468,1.1472,1.1458,1.146,1.1461,1.1462,0,0,0,0,0,0,0,1.1142,1.1153,1.1253,1.1249,1.1254,1.1264,1.1274,1.1305,1.1358,1.1323,1.1327,1.1337,1.1404,1.1421,1.1427,1.1473,1.1457,1.146,1.1462,1.1464,1.1534,1.1534,0,0,0,0,0,0,1.1132,1.1148,1.125,1.1256,1.1202,1.1266,1.1278,1.13,1.1358,1.1367,1.1337,1.1339,1.1416,1.1423,1.143,1.1453,1.1461,1.1464,1.1466,1.1534,1.1534,1.1534,0,0,0,0,0,0,1.1129,1.1141,1.1247,1.1203,1.1217,1.1269,1.1293,1.1302,1.132,1.1369,1.1378,1.1345,1.1416,1.1425,1.1456,1.1457,1.1465,1.1468,1.1534,1.1534,1.1534,1.15,0,0,0,0,0,0,1.1125,1.114,1.1149,1.1203,1.122,1.1273,1.1294,1.1304,1.1326,1.1329,1.1379,1.1387,1.1417,1.145,1.1459,1.1461,1.1471,1.1534,1.1534,1.1534,1.1501,1.1498,1.1496,0,0,0,0,0,1.112,1.1134,1.1149,1.1161,1.1232,1.1273,1.1282,1.1318,1.1326,1.1334,1.1365,1.1386,1.1455,1.1453,1.1463,1.1466,1.1534,1.1534,1.1534,1.1502,1.1499,1.1496,0,0,0,0,0,0,1.1076,1.1142,1.1159,1.1192,1.1227,1.1281,1.1292,1.1314,1.1346,1.1347,1.1388,1.1399,1.1425,1.1449,1.1445,1.1485,1.1497,1.1498,1.1469,1.1467,1.1464,1.1458,1.1474,0,0,0,0,0,1.107,1.1101,1.1156,1.1179,1.1196,1.1241,1.126,1.1285,1.1322,1.1336,1.137,1.1403,1.1432,1.1451,1.148,1.1504,1.1515,1.1511,1.1509,1.1507,1.1508,1.1521,1.152,1.1533,1.1533,1.1533,0,0,1.1058,1.1098,1.1114,1.1171,1.1201,1.1229,1.1253,1.1282,1.1302,1.134,1.1371,1.1397,1.1436,1.1463,1.1477,1.1483,1.1506,1.1507,1.1505,1.1507,1.1521,1.1519,1.1518,1.1533,1.1533,1.1533,0,0,1.1051,1.1085,1.1108,1.1138,1.1184,1.1214,1.1219,1.127,1.1289,1.1322,1.135,1.1374,1.1424,1.1451,1.1471,1.1473,1.1492,1.1481,1.1468,1.1481,1.148,1.1479,1.1479,1.1478,1.1482,1.1481,1.1481,0,1.103,1.1076,1.1116,1.1144,1.1167,1.1204,1.1226,1.1253,1.1305,1.1319,1.1326,1.139,1.1419,1.1452,1.1453,1.1468,1.1473,1.1476,1.1477,1.1477,1.1477,1.1477,1.1477,1.148,1.148,1.148,1.148,0,1.1047,1.1078,1.109,1.1143,1.1167,1.1191,1.1233,1.1253,1.1275,1.1303,1.1334,1.137,1.1408,1.1418,1.1439,1.1453,1.1456,1.147,1.1482,1.1473,1.1474,1.1474,1.1477,1.1478,1.1479,1.1479,0,0,1.1015,1.1089,1.1093,1.1117,1.117,1.1193,1.1218,1.1257,1.1272,1.1306,1.1327,1.1368,1.1381,1.1404,1.1428,1.1439,1.1437,1.1451,1.1453,1.1447,1.1454,1.1443,1.1443,1.145,1.145,1.1451,1.1451,0,1.1015,1.1065,1.1101,1.1136,1.1164,1.1199,1.1221,1.1254,1.1281,1.1306,1.1335,1.1363,1.1379,1.1393,1.1405,1.1435,1.1439,1.1435,1.1468,1.1469,1.1457,1.1444,1.1433,1.1431,1.1451,1.1451,1.1451,0,1.1022,1.1057,1.1095,1.1145,1.1158,1.1177,1.1215,1.124,1.1277,1.1296,1.1321,1.1346,1.1372,1.1381,1.1416,1.1413,1.1428,1.1444,1.1445,1.1449,1.1459,1.1447,1.1431,1.1431,1.1452,1.1452,1.1452,0,1.0994,1.1051,1.1081,1.11,1.1159,1.1171,1.1195,1.1234,1.1254,1.1286,1.13,1.1333,1.1351,1.1376,1.1408,1.1413,1.1439,1.1452,1.1453,1.1452,1.1457,1.1456,1.1443,1.1467,1.1467,1.1467,1.1467,0,1.099,1.1012,1.1069,1.1088,1.1112,1.1152,1.1175,1.1202,1.1235,1.1257,1.1289,1.1309,1.1351,1.1375,1.14,1.1424,1.1432,1.1446,1.1452,1.1443,1.1441,1.1454,1.1454,1.1467,1.1467,1.1467,1.1467,0,1.0963,1.1003,1.1038,1.1091,1.1104,1.112,1.1164,1.1182,1.121,1.1238,1.1246,1.129,1.132,1.1355,1.1396,1.1413,1.1434,1.1444,1.1422,1.1426,1.1425,1.1424,1.1419,1.142,1.1444,1.1443,1.1443,0,1.0958,1.0976,1.1031,1.105,1.1074,1.1103,1.1125,1.1164,1.1185,1.1229,1.1241,1.1273,1.1302,1.1347,1.1381,1.1412,1.1422,1.1418,1.1427,1.1417,1.1421,1.142,1.1421,1.1416,1.1415,1.1415,1.1415,0,1.0944,1.0963,1.0995,1.1033,1.1058,1.1089,1.1121,1.1134,1.1179,1.12,1.1233,1.1255,1.1297,1.1329,1.1364,1.1386,1.1407,1.1412,1.1414,1.1404,1.1391,1.1397,1.1415,1.1412,1.1412,1.1412,1.1412,1.1412,1.0928,1.0945,1.0987,1.102,1.1049,1.1078,1.1098,1.1129,1.1157,1.1197,1.1217,1.1248,1.1284,1.1334,1.1355,1.1379,1.1386,1.1389,1.1389,1.1389,1.1386,1.1387,1.1385,1.1385,1.1385,1.1385,1.1385,0,1.0916,1.0944,1.0975,1.102,1.1045,1.1065,1.1102,1.1121,1.1149,1.1182,1.1209,1.1245,1.1276,1.1312,1.1344,1.1355,1.1366,1.1362,1.1361,1.1366,1.1378,1.1373,1.1353,1.1353,1.1353,1.1353,1.1353,1.1353,1.0912,1.0942,1.0966,1.1009,1.1037,1.107,1.1089,1.1115,1.1141,1.1181,1.1207,1.1231,1.1264,1.1299,1.1327,1.1336,1.1346,1.134,1.1352,1.1363,1.1365,1.1368,1.1363,1.1342,1.1342,1.1338,1.1338,1.1338]}]]